Location: ?????
(44.4284°N, 135.2222°E)
Time: 04:19:57
(UTC+00:00)

NOSS 0 Rocket - Pass Details

Date: 19 May 2025
Orbit: 933 x 954 km, 70.0° (Epoch: 19 June)

Event Time Altitude Azimuth Distance (km) Brightness Sun altitude
Rises 16:17:18 0° 334° (NNW) 3,641 7.6 -23.0°
Reaches altitude 10° 16:19:53 10° 338° (NNW) 2,691 6.9 -22.8°
Maximum altitude 16:26:05 63° 59° (ENE) 1,059 4.3 -22.4°
Enters shadow 16:31:55 12° 140° (SE) 2,555 5.9 -22.0°
